OBJECT M, 66304

Orbit data source: Space-Track

You're viewing an Uncataloged Satellite

Recently launched and/or uncataloged satellites may have evolving metadata. Metadata may include but not limited to: Owner, Maufacturer, Bus, Motor, and Mission.

OBJECT M, 66304 is a satellite in LEO that was launched on Sun, 02 Nov 2025 UTC via an FALCON 9 launch vehicle from the Air Force Eastern Test Range (AFETR). Unknown objects in Earth's orbit typically refer to objects detected orbiting the Earth but have not yet been identified or cataloged. These objects could be anything from previously untracked satellites, spent rocket stages, debris from satellite collisions, or even natural meteoroids temporarily captured by Earth's gravity.

Loading next visibility...
Identifier
66304, 2025-248M
Orbit
LEO
Country
Flag of TBDTBD
Related business
None
Manufacturer
Unknown
Mission
Operational Amateur Technology
Bus & Motor
Unknown
Mass
Unknown
Launch date (UTC)
2025-11-02 (8 months ago)
Launch vehicle
FALCON 9
Launch site
Air Force Eastern Test Range (AFETR)
Object type
Unknown
Shape & HBR
Box, 0.3 m
Radar Cross Section
0.350 m², Small (<0.1 m²)

Expand to show TLE details & history
Last TLE update: 18 hours ago

TLE from 18 hours ago
0 OBJECT M
1 66304U 25248M   26171.13187697  .00015847  00000-0  58253-3 0  9990
2 66304  45.4191  97.5556 0009534  81.4937 278.7032 15.27777044 33789
Epoch: 2026-06-20T03:09Z
TLE epoch observation values (Epoch: 2026-06-20T03:09:54.170Z)
Latitude
-0.00006°
Longitude
141.72894°
Altitude
481.521 km
Speed
7.627 km/s
True Right ascension
06h 30m 13s
True Declination
0° 00' 00"
Sunlit
Object was in daylight at epoch
Visualization orbit readout
Latitude
Unknown
Longitude
Unknown
Altitude
Unknown
Speed
Unknown
Apparent Right ascension
Unknown
Apparent Declination
Unknown
Sunlit
N/A
Visualization observer readout
Local Sidereal Time
08:33:19
Azimuth
Unknown
Elevation
Unknown
Doppler factor
Unknown
Orbital elements
Apogee altitude
490.54 km
Perigee altitude
477.456 km
Semi-major axis
6,862.135 km
Eccentricity
0.00095
Inclination
45.4191°
RAAN
97.5556°
Arg. of periapsis
81.4937°
True anomaly
278.59519°
Mean anomaly
278.7032°
Eccentric anomaly
278.6492°
Mean motion
3.81816 °/min
Orbital period
94.29 mins
BSTAR
0.00058253
Loading maneuver chart data...
Computing Atmospheric mass density...
Loading historical data...
Loading historical data...
Loading historical data...
Loading historical data...
Loading historical data...
Loading historical data...
Loading historical data...

Documentation

Showing up to 5 results
|